Cloud_Cover
100 100 100 100 100 27 8 92 100 65 27 83 5 5 0 8 36 5 90 100 100 100 100 100 100 100 100 100 100 100 100 100 100 100 100 54 74 100 100 96 46 50 44 5
100 100 100 100 100 84 96 100 95 99 24 100 21 5 0 3 5 19 97 100 100 100 100 100 100 100 100 100 100 100 100 100 100 100 100 100 100 100 100 99 49 57 48 48
100 95 100 100 100 100 100 100 99 100 95 99 92 23 3 0 0 4 68 100 100 100 100 100 100 100 100 100 100 100 100 100 100 100 100 100 100 100 100 89 89 99 54 46
100 99 100 100 100 65 100 29 60 100 100 99 83 95 5 2 0 1 11 100 100 100 95 100 100 100 100 100 100 100 100 100 100 100 100 100 100 100 100 100 98 44 89 100
23 89 100 48 58 100 99 87 95 60 100 84 100 100 2 0 1 0 36 100 100 100 100 100 100 100 100 100 100 100 100 100 100 100 100 100 100 100 100 100 100 100 89 96
95 99 56 1 5 5 6 39 22 98 100 100 45 100 0 2 0 0 37 100 100 100 100 100 100 100 100 100 100 100 100 100 83 100 100 98 100 100 100 100 100 100 100 100
100 97 98 5 5 5 61 83 100 100 99 38 5 64 8 0 0 0 100 100 100 100 100 100 100 100 100 100 100 100 100 100 100 100 100 100 100 100 100 100 100 100 100 100
93 97 36 85 9 7 21 98 96 93 52 4 3 30 4 5 5 0 100 100 100 100 100 100 100 100 100 100 100 100 100 100 100 100 100 100 100 100 100 100 100 100 100 100
89 85 5 4 5 62 77 88 89 94 91 100 6 4 0 9 95 9 100 100 100 100 100 100 100 100 100 100 100 100 100 100 100 100 100 100 100 100 100 100 100 100 100 100
100 99 11 100 100 98 98 98 95 99 98 88 11 4 4 1 98 100 100 100 100 100 100 100 100 100 100 100 100 100 100 100 100 100 100 100 100 100 100 100 100 100 100 100
100 98 39 24 60 96 100 100 99 45 32 27 89 10 42 14 100 86 100 100 100 100 100 100 100 100 100 100 100 100 100 100 100 100 100 100 100 100 100 100 98 100 100 100
100 100 100 11 98 100 100 99 100 100 100 68 5 11 11 22 100 46 100 100 100 100 100 100 100 100 100 100 100 100 100 100 100 100 100 100 100 100 100 69 100 96 97 100
100 100 100 94 100 100 97 95 100 100 100 100 98 89 37 15 94 100 100 100 100 100 100 100 100 100 100 100 100 100 100 100 100 100 100 100 100 100 100 100 98 74 96 100
100 100 100 100 100 100 99 100 100 100 100 90 98 99 100 100 98 93 100 100 100 100 100 100 100 100 100 100 100 100 100 100 100 100 100 100 100 100 98 100 97 99 100 100
100 100 100 100 100 100 100 100 100 91 87 100 99 92 99 35 92 100 100 100 100 100 100 100 100 100 100 100 100 100 100 100 100 100 100 100 100 100 100 100 100 100 99 100
100 100 100 100 100 97 52 42 56 14 85 73 100 100 100 100 100 100 100 100 100 100 100 100 100 100 100 100 100 100 100 100 100 100 100 100 100 100 100 100 100 100 95 100
47 100 100 100 100 77 20 100 100 70 89 100 78 100 98 100 100 100 100 100 100 100 100 100 100 100 100 100 100 100 100 100 100 100 100 100 100 100 100 100 99 100 100 100
100 100 100 100 100 58 88 100 100 82 100 97 100 100 99 100 100 100 100 100 100 100 100 100 100 100 100 100 100 93 100 100 100 100 100 100 100 100 100 99 100 100 100 100
100 100 100 80 100 72 99 100 97 96 100 100 100 100 100 100 100 100 100 100 100 100 100 100 100 100 100 100 100 84 100 100 100 100 100 100 100 100 100 100 100 100 100 100
100 99 38 51 99 18 100 100 90 100 100 100 100 100 100 100 100 100 100 100 100 100 100 100 100 100 100 100 100 100 100 100 100 100 100 100 100 100 100 100 100 100 100 99
100 100 84 96 45 7 100 100 99 100 100 100 100 100 100 100 100 100 100 100 100 100 100 100 100 100 100 100 100 100 100 100 100 100 100 100 100 100 100 100 100 100 100 100
100 91 74 94 100 63 68 98 100 100 100 100 100 100 100 100 100 100 100 100 100 100 100 100 100 100 100 100 100 100 100 100 100 100 100 100 100 100 100 100 100 100 100 100
100 100 100 62 4 96 100 100 100 100 100 100 100 100 100 100 100 100 100 100 100 100 100 100 100 100 100 100 100 100 100 100 100 100 100 100 100 100 100 100 100 100 100 100
88 100 99 90 26 60 99 100 100 100 100 100 100 93 100 100 100 100 100 100 100 100 100 100 100 100 100 100 100 100 100 100 100 100 100 100 100 100 100 100 100 100 100 100
100 63 66 13 99 58 100 100 100 100 100 100 100 100 100 100 100 100 100 100 100 100 100 100 100 100 100 100 100 100 100 100 100 100 100 100 100 100 100 100 100 100 100 100
95 91 84 57 100 100 100 100 100 100 100 100 100 100 97 100 100 100 100 100 100 100 100 100 100 100 100 100 100 100 100 100 100 100 100 100 100 100 100 100 100 100 100 100